Tracking 27124 objects as of 31-Mar-2023
HD Live streaming from Space Station
objects crossing your sky now

STARLINK-3333

Track STARLINK-3333 now!
10-day predictions
STARLINK-3333 is classified as:


NORAD ID: 50805
Int'l Code: 2022-001C
Perigee: 546.0 km
Apogee: 547.6 km
Inclination: 53.2 °
Period: 95.4 minutes
Semi major axis: 6917 km
RCS: Unknown
Launch date: January 6, 2022
Source: United States (US)
Launch site: AIR FORCE EASTERN TEST RANGE (AFETR)
Your satellite tracking list
Your tracking list is empty




NASA's NSSDC Master Catalog

Two Line Element Set (TLE):
1 50805U 22001C   23089.87384238  .00009147  00000-0  59183-3 0  9998
2 50805  53.2159 304.1551 0001165  82.5871 277.5254 15.08853513 68283
Source of the keplerian elements: AFSPC